Weather in Turginovo

Russia / Tver Oblast     56°29′52″N   35°59′55″E
temp.,
°C
wind,
m/s
gust,
m/s
humid.,
%
clouds,
%
prec.,
mm/h
press.,
hPa
HPBL,
m
2 december, thu
thu200:00−8w499092 0.0 995391
03:00−9wsw4109299 0.1 998349
06:00−10wsw389536 0.0 999202
09:00−10sw3796100 0.0 1000171
12:00−6ssw3790100 0.0 999300
15:00−4se4895100 0.4 998430
18:00−4sse5119499 1.4 996614
21:00−3s41197100 2.1 995490
3 december, fri
fri300:00+1sw51195100 0.4 995657
03:00+1sw5129385 1.3 995606
06:00−1sw4109180 0.1 996317
09:000sw51287100 0.1 998506
12:000sw51187100 0.0 999630
15:000ssw51087100 0.0 999567
18:00−1ssw41095100 0.3 1000550
21:00−1sw4995100 0.8 999494
4 december, sat
sat400:00−1sw51190100 0.0 999599
03:00−2wsw61185100 0.1 9991025
06:00−3sw7148499 0.0 1000839
09:00−3wsw71488100 0.1 10011012
12:00−3wsw71285100 0.1 1004947
15:00−4w6118599 0.2 1006834
18:00−5w5985100 0.1 1009846
21:00−5w4985100 0.1 1011725
5 december, sun
sun500:00−6w378761 0.0 1013311
03:00−10w119758 0.0 101510
06:00−10sw0198100 0.0 101610
09:00−7e1197100 0.1 101722
12:00−4se229298 0.1 1019220
15:00−4ese2495100 0.1 1018170
18:00−4e3697100 0.3 1020229
21:00−4e3796100 0.4 1020268
6 december, mon
mon600:00−3ese41096100 0.3 1021492
03:00−3e51191100 0.7 1021480
06:00−4e61392100 0.1 1021534
09:00−5ese61489100 0.1 1022595
12:00−4ese61489100 0.3 1022706
15:00−4ese51395100 1.8 1021701
18:00−4ese51295100 1.4 1021635
21:00−3ese41196100 2.4 1020525